Погода в Арзамасцеве

Россия / Удмуртская Республика     56°08′49″N   53°42′00″E
темп.,
°C
ветер,
м/с
пор.,
м/с
влажн.,
%
обл.,
%
осадки,
мм/ч
давл.,
гПа
погр.,
м
25 января, вт
вт2501:00−19ююз229849 0.0 10359
04:00−19ююз22989 0.0 103511
07:00−20ююз229812 0.0 103318
10:00−19ююз239917 0.0 103236
13:00−13ююз24935 0.0 1030119
16:00−16ю22967 0.0 102919
19:00−19ю22975 0.0 102814
22:00−20ю229841 0.0 102716
26 января, ср
ср2601:00−21ю229977 0.0 102714
04:00−22ююв229997 0.0 102610
07:00−21ююв229998 0.0 102518
10:00−18ююв249846 0.0 102468
13:00−13ююв259665 0.0 1023151
16:00−15юв2398100 0.0 102231
19:00−17юв2299100 0.0 102110
22:00−15юв2298100 0.0 102043
27 января, чт
чт2701:00−11ююв2396100 0.6 1018125
04:00−10ю2596100 1.4 1018225
07:00−10ююз2696100 0.4 1018188
10:00−10юз3795100 0.6 1019313
13:00−10юз489596 0.0 1020351
16:00−14ю229883 0.1 102127
19:00−13ю3697100 0.1 1021132
22:00−14ю2398100 0.1 102152
28 января, пт
пт2801:00−15ю3497100 0.0 102164
04:00−15ю3498100 0.0 102167
07:00−17ююв22100100 0.0 102225
10:00−16ююв239988 0.1 102246
13:00−12ююв249770 0.0 1021122
16:00−14юв229967 0.0 10219
19:00−17вюв2210091 0.0 102112
22:00−19в2210087 0.0 10209
29 января, сб
сб2901:00−14в2298100 0.0 101948
04:00−13в229699 0.0 101839
07:00−12вюв2297100 0.1 101653
10:00−10ююв259795 0.1 1015131
13:00−8ююв369779 0.1 1014229
16:00−8юв3796100 0.1 1013160
19:00−10ююв3796100 0.0 1013142
22:00−9ююв3996100 0.1 1011222